Location: İstanbul
(41.0082°N, 28.9784°E)
Time: 07:05:17
(UTC+03:00)

NOAA 18 - Visible Passes

Search period start: 16 April 2024 00:00
Search period end: 26 April 2024 00:00
Orbit: 839 x 858 km, 98.9° (Epoch: 15 April)

Date Brightness Start Highest point End Pass type
(mag) Time Alt. Az. Time Alt. Az. Time Alt. Az.
16 Apr 5.7 22:59:29 54° NNE 22:59:29 54° NNE 23:03:52 10° N visible
17 Apr 7.7 00:41:26 13° WNW 00:41:26 13° WNW 00:42:43 10° NW visible
17 Apr 5.7 22:46:46 49° NE 22:46:46 49° NE 22:51:20 10° N visible
18 Apr 7.4 00:28:43 17° WNW 00:28:43 17° WNW 00:30:55 10° NW visible
18 Apr 5.9 22:34:04 41° NE 22:34:04 41° NE 22:38:44 10° N visible
19 Apr 7.1 00:16:00 22° WNW 00:16:00 22° WNW 00:18:53 10° NW visible
19 Apr 6.1 22:21:21 33° ENE 22:21:21 33° ENE 22:26:04 10° N visible
20 Apr 6.8 00:03:18 29° WNW 00:03:18 29° WNW 00:06:44 10° NNW visible
20 Apr 6.4 22:08:38 26° ENE 22:08:49 26° ENE 22:13:22 10° N visible
20 Apr 6.4 23:50:35 37° WNW 23:50:35 37° WNW 23:54:29 10° NNW visible
21 Apr 6.7 21:55:56 21° ENE 21:56:29 21° ENE 22:00:32 10° NNE visible
21 Apr 6.0 23:37:52 47° WNW 23:37:52 47° WNW 23:42:09 10° NNW visible
22 Apr 6.9 21:43:13 16° ENE 21:44:12 17° ENE 21:47:36 10° NNE visible
22 Apr 5.7 23:25:10 59° NW 23:25:10 59° NW 23:29:46 10° NNW visible
23 Apr 7.2 21:30:30 12° ENE 21:31:56 13° ENE 21:34:25 10° NNE visible
23 Apr 5.4 23:12:27 69° N 23:12:27 69° N 23:17:19 10° NNW visible
24 Apr 7.8 00:54:24 11° WNW 00:54:24 11° WNW 00:54:49 10° WNW visible
24 Apr 7.4 21:19:06 10° ENE 21:19:41 10° NE 21:20:15 10° NE visible
24 Apr 5.3 22:59:44 67° NE 22:59:44 67° NE 23:04:49 10° N visible
25 Apr 7.5 00:41:41 14° WNW 00:41:41 14° WNW 00:43:36 10° NW visible
25 Apr 5.5 22:47:02 54° ENE 22:47:02 54° ENE 22:52:16 10° N visible
